Overview Statistics Trail Chart Weather Telemetry Raw packets
 

This is the latest recevied weather packets stored in our database for station/object EA7OC-10. If no packets are shown the sender has not sent any weather packets the latest 10 day(s).

<< 35 36 37 38 >>
Time Temp. Humidity Pressure Rain* Wind** Luminosity Snow
1787766758 33.33° C 27% 1013.3 hPa - - - -
1787765858 34.44° C 27% 1013.3 hPa - - - -
1787764958 35° C 28% 1013 hPa - - - -
1787764058 35° C 27% 1013.1 hPa - - - -
1787763158 35.56° C 28% 1013 hPa - - - -
1787762257 36.11° C 28% 1012.8 hPa - - - -
1787761357 36.11° C 28% 1013.1 hPa - - - -
1787760457 36.67° C 28% 1013 hPa - - - -
1787759557 36.67° C 29% 1013.2 hPa - - - -
1787758657 37.22° C 28% 1013.4 hPa - - - -
1787757757 36.67° C 29% 1013.4 hPa - - - -
1787756857 36.67° C 29% 1013.3 hPa - - - -
1787755957 37.22° C 30% 1013.6 hPa - - - -
1787755056 36.67° C 29% 1013.6 hPa - - - -
1787754156 36.11° C 30% 1013.5 hPa - - - -
1787753256 36.11° C 30% 1014 hPa - - - -
1787752356 35.56° C 30% 1013.9 hPa - - - -
1787751456 35.56° C 30% 1013.9 hPa - - - -
1787750556 35° C 31% 1013.9 hPa - - - -
1787749656 35° C 31% 1014.1 hPa - - - -
1787748756 34.44° C 31% 1014.2 hPa - - - -
1787747855 34.44° C 32% 1014.2 hPa - - - -
1787746955 33.89° C 31% 1014.3 hPa - - - -
1787746055 34.44° C 31% 1014.4 hPa - - - -
1787745155 33.89° C 33% 1014.4 hPa - - - -

* Rain since midnight (hover to see other rain measurements)
** Current wind speed in m/s (hover to see current wind gust speed)